Temp
68 68 70 70 70 68 64 64 64 65 65 64 63 63 63 63 64 64 63 63 62 63 63 63 63 67 65 66 66 68 68 67
68 68 70 67 65 67 64 63 63 63 63 62 62 61 61 61 62 63 61 61 61 61 61 62 62 63 63 64 64 65 65 66
71 73 72 67 64 63 63 62 62 61 61 61 61 61 61 61 61 61 61 60 60 61 61 61 62 63 63 63 63 63 64 64
69 65 68 64 65 63 61 62 62 61 60 60 61 60 61 61 60 61 62 61 61 60 61 61 62 62 61 62 63 62 63 63
69 72 72 71 63 61 62 62 61 61 61 61 60 61 61 60 61 62 62 62 61 61 61 61 61 61 61 61 61 62 61 62
72 73 71 62 60 62 61 66 61 61 60 60 60 60 60 60 61 61 63 63 62 61 61 60 61 60 60 60 60 60 61 61
67 68 63 61 61 61 61 62 61 61 60 60 60 61 60 61 61 61 62 63 63 61 60 60 61 60 59 59 59 60 59 60
69 64 61 60 61 63 63 61 61 60 60 59 59 59 60 61 61 62 63 62 63 61 60 60 60 59 58 58 59 59 60 60
64 61 60 60 61 61 61 60 59 59 58 58 58 59 59 60 61 63 63 63 63 61 60 60 59 59 59 58 59 59 59 60
60 57 60 62 62 62 59 60 59 59 59 59 59 59 59 60 61 63 63 63 62 61 60 60 59 58 58 58 58 57 58 59
58 57 58 61 61 60 61 60 59 60 60 59 59 59 59 59 59 60 61 63 63 62 61 60 59 58 57 57 58 59 57 58
57 57 57 61 61 61 60 60 60 61 60 60 60 58 57 57 58 59 60 63 63 62 61 60 59 58 57 58 59 60 60 58
57 58 60 61 60 61 60 60 60 61 60 60 59 58 57 58 58 59 59 61 63 62 61 60 59 58 59 59 59 59 60 59
56 58 61 59 59 59 59 60 60 60 60 60 60 59 58 57 57 57 57 58 60 61 61 60 60 59 59 59 60 60 60 61
57 59 59 57 58 58 59 60 59 60 61 61 60 60 59 58 57 57 56 56 58 59 60 60 60 61 61 60 60 61 60 61
58 60 59 59 59 58 60 59 59 60 61 60 60 60 57 57 57 57 56 56 57 59 60 61 62 62 62 61 61 61 61 62
57 59 58 59 58 58 59 59 59 60 61 60 60 60 58 58 58 57 57 57 59 60 61 61 61 62 62 62 61 62 62 62
57 58 57 58 58 59 59 59 60 61 61 60 61 61 60 59 58 58 58 58 60 60 61 61 61 62 62 61 62 64 64 61
58 57 58 58 58 58 58 59 60 61 61 60 63 61 60 59 59 59 59 59 59 61 61 61 61 61 61 62 63 63 62 62
58 59 57 57 57 57 58 59 60 61 61 62 63 63 60 59 59 59 59 59 60 61 61 61 61 61 61 61 63 63 63 62
MSLP
1006.61 1006.64 1006.69 1006.21 1006.93 1007.73 1008.00 1008.32 1008.87 1009.32 1009.64 1010.22 1010.76 1011.07 1011.33 1011.59 1011.79 1011.92 1012.23 1012.45 1012.57 1012.59 1012.69 1012.65 1012.60 1012.44 1012.39 1012.29 1012.22 1012.10 1012.19 1012.39
1006.42 1005.97 1005.95 1006.31 1006.59 1006.86 1007.46 1008.12 1008.77 1009.36 1009.62 1010.17 1010.41 1011.06 1011.33 1011.61 1011.62 1011.74 1012.10 1012.28 1012.43 1012.44 1012.49 1012.42 1012.40 1012.35 1012.27 1012.20 1012.25 1012.18 1012.18 1012.25
1005.34 1004.72 1005.02 1005.67 1006.27 1006.75 1007.23 1007.81 1008.53 1009.24 1009.77 1010.13 1010.33 1010.82 1011.21 1011.19 1011.38 1011.48 1011.73 1011.95 1012.03 1011.99 1012.06 1012.04 1012.06 1012.07 1012.04 1012.11 1012.15 1012.19 1012.28 1012.38
1004.72 1005.09 1004.56 1005.15 1005.44 1006.29 1007.19 1008.07 1008.54 1009.10 1009.58 1009.94 1010.16 1010.47 1010.75 1010.91 1011.04 1011.08 1011.23 1011.32 1011.45 1011.56 1011.60 1011.69 1011.73 1011.71 1011.88 1011.91 1012.03 1012.15 1012.29 1012.38
1003.91 1003.50 1003.39 1003.69 1004.82 1006.20 1007.03 1007.72 1008.39 1008.77 1009.40 1009.73 1010.05 1010.22 1010.43 1010.74 1010.67 1010.69 1010.72 1010.78 1010.85 1011.06 1011.16 1011.24 1011.33 1011.43 1011.61 1011.75 1011.97 1012.01 1012.23 1012.38
1002.64 1002.93 1002.88 1003.71 1004.72 1005.84 1006.89 1007.45 1008.14 1008.80 1009.24 1009.60 1009.93 1010.12 1010.13 1010.33 1010.30 1010.30 1010.31 1010.27 1010.32 1010.67 1010.80 1010.76 1010.92 1011.21 1011.34 1011.64 1011.74 1011.97 1012.17 1012.32
1002.12 1002.25 1002.83 1003.37 1004.28 1005.45 1006.66 1007.24 1007.99 1008.72 1009.16 1009.60 1009.88 1009.91 1009.91 1009.94 1009.80 1009.78 1009.71 1009.70 1009.95 1010.29 1010.44 1010.63 1010.79 1010.99 1011.19 1011.32 1011.60 1011.88 1012.08 1012.24
1001.08 1001.93 1002.78 1003.42 1004.22 1005.21 1006.23 1007.13 1007.80 1008.58 1009.11 1009.55 1009.70 1009.70 1009.62 1009.42 1009.38 1009.33 1009.34 1009.37 1009.56 1009.84 1010.16 1010.36 1010.60 1010.91 1011.11 1011.38 1011.65 1011.80 1011.96 1012.04
1000.93 1001.64 1002.73 1003.76 1004.44 1005.26 1006.02 1007.05 1007.90 1008.52 1009.24 1009.62 1009.63 1009.39 1009.34 1009.15 1009.11 1009.02 1009.06 1009.25 1009.29 1009.66 1009.95 1010.21 1010.48 1010.76 1010.92 1011.25 1011.50 1011.67 1011.95 1012.10
1001.36 1001.99 1002.62 1002.97 1003.79 1004.91 1006.00 1006.92 1007.78 1008.26 1008.69 1008.86 1008.76 1009.08 1009.12 1009.09 1009.03 1008.87 1008.84 1008.85 1009.03 1009.37 1009.66 1010.03 1010.27 1010.66 1010.87 1011.11 1011.34 1011.54 1011.81 1012.01
1001.29 1002.13 1002.61 1003.26 1004.07 1005.00 1005.88 1006.79 1007.58 1008.08 1008.27 1008.43 1008.78 1009.08 1009.08 1009.08 1009.02 1008.90 1008.90 1008.73 1008.79 1009.12 1009.53 1009.87 1010.14 1010.45 1010.71 1010.92 1011.08 1011.21 1011.60 1012.01
1001.41 1002.28 1003.03 1003.53 1004.38 1005.09 1005.74 1006.77 1007.50 1007.78 1007.94 1008.30 1008.70 1009.05 1009.29 1009.20 1009.12 1009.07 1008.98 1008.79 1008.78 1009.02 1009.47 1009.78 1010.05 1010.35 1010.55 1010.68 1010.87 1011.09 1011.20 1011.54
1001.75 1002.43 1003.00 1003.80 1004.56 1005.25 1005.94 1006.79 1007.33 1007.49 1007.76 1008.16 1008.58 1008.87 1009.08 1009.05 1009.10 1009.13 1009.06 1008.94 1009.00 1009.29 1009.51 1009.74 1009.98 1010.16 1010.34 1010.45 1010.79 1010.99 1011.18 1011.27
1001.92 1002.88 1003.45 1004.13 1004.85 1005.49 1006.22 1006.80 1007.17 1007.43 1007.78 1008.11 1008.41 1008.71 1008.88 1009.09 1009.16 1009.23 1009.29 1009.25 1009.20 1009.43 1009.57 1009.73 1009.89 1010.06 1010.16 1010.32 1010.49 1010.86 1011.17 1011.19
1002.26 1002.86 1003.57 1004.48 1005.24 1005.77 1006.26 1006.71 1007.18 1007.42 1007.75 1008.04 1008.33 1008.59 1008.87 1009.07 1009.10 1009.29 1009.36 1009.36 1009.46 1009.63 1009.68 1009.77 1009.92 1009.92 1010.07 1010.18 1010.36 1010.72 1010.97 1011.08
1002.43 1002.93 1003.54 1004.38 1005.15 1005.77 1006.23 1006.69 1007.11 1007.35 1007.67 1008.02 1008.22 1008.50 1008.89 1008.99 1009.12 1009.23 1009.30 1009.45 1009.62 1009.72 1009.74 1009.83 1009.86 1009.86 1010.03 1010.15 1010.29 1010.53 1010.69 1010.92
1002.42 1003.11 1003.60 1004.43 1005.09 1005.71 1006.08 1006.64 1007.02 1007.26 1007.52 1007.94 1008.18 1008.49 1008.74 1008.95 1009.10 1009.14 1009.31 1009.58 1009.71 1009.81 1009.86 1009.89 1009.95 1010.03 1010.09 1010.27 1010.35 1010.38 1010.65 1010.85
1002.75 1003.36 1003.87 1004.43 1005.03 1005.52 1006.06 1006.45 1006.77 1007.06 1007.44 1007.79 1008.00 1008.23 1008.58 1008.94 1009.07 1009.12 1009.34 1009.69 1009.77 1009.89 1009.94 1010.04 1010.08 1010.18 1010.28 1010.46 1010.62 1010.59 1010.64 1010.95
1002.72 1003.36 1003.95 1004.40 1005.04 1005.64 1006.14 1006.49 1006.78 1007.00 1007.36 1007.71 1007.87 1008.07 1008.53 1008.90 1009.01 1009.19 1009.42 1009.69 1009.79 1009.91 1009.98 1010.11 1010.22 1010.46 1010.60 1010.64 1010.74 1010.74 1010.81 1010.98
1002.69 1003.24 1003.97 1004.68 1005.12 1005.79 1006.21 1006.44 1006.68 1006.86 1007.26 1007.58 1007.80 1007.85 1008.48 1008.84 1008.98 1009.21 1009.42 1009.72 1009.87 1009.98 1010.06 1010.16 1010.40 1010.57 1010.72 1010.88 1010.83 1010.88 1010.96 1011.13
Wind_Speed
11 11 12 19 14 8 10 8 7 7 6 4 3 2 3 3 5 5 4 3 3 3 2 2 3 6 3 4 4 3 4 4
15 15 15 9 9 14 9 8 8 7 4 4 4 3 3 3 4 5 4 3 4 4 3 4 3 2 3 2 2 3 3 5
17 19 13 8 10 8 10 10 9 7 6 4 4 4 4 5 4 5 4 5 5 4 5 3 3 3 3 2 2 2 3 4
13 8 13 11 10 10 8 9 8 8 6 6 5 4 5 4 4 5 6 5 5 4 4 4 4 3 2 2 2 2 3 3
16 22 19 18 6 9 12 12 9 9 8 6 4 5 4 4 5 6 7 7 7 5 4 4 3 3 4 2 2 2 2 3
20 18 12 9 11 12 9 10 9 8 7 5 4 4 4 4 4 4 6 7 7 5 4 4 3 3 2 3 2 2 2 3
15 11 9 10 13 14 11 10 10 8 6 4 5 5 4 4 4 4 6 6 5 5 3 3 3 2 3 2 1 2 2 3
11 9 8 11 12 13 12 8 8 7 4 2 2 3 3 4 3 3 5 4 5 4 3 3 3 2 2 2 2 3 2 2
5 9 11 11 11 13 12 10 7 5 2 2 3 3 2 2 2 4 4 3 4 4 3 3 3 3 3 4 3 4 3 2
4 8 11 16 16 14 11 9 8 5 3 3 2 2 2 3 2 1 3 4 4 4 4 3 4 2 3 4 4 2 2 2
7 9 10 12 16 14 12 9 9 6 5 2 3 1 1 2 2 1 2 2 3 4 4 3 3 3 3 3 4 4 3 2
6 8 10 13 11 10 9 8 8 6 6 3 3 3 1 2 1 1 2 1 3 3 4 4 3 3 3 4 3 2 3 3
9 10 12 11 11 10 8 8 7 6 6 5 4 2 2 1 1 1 1 3 3 3 3 4 4 3 3 4 4 3 1 3
9 9 12 9 7 8 7 8 6 6 5 5 5 4 4 1 0 1 1 1 2 3 4 3 3 3 3 3 4 4 3 2
13 17 13 10 9 8 7 8 6 6 5 5 5 4 3 2 1 1 2 1 2 2 3 3 2 3 4 4 4 3 3 2
12 14 12 12 10 8 8 8 6 6 5 5 4 4 3 2 2 2 2 2 3 2 3 3 3 4 3 3 2 3 3 3
13 12 11 10 9 9 9 8 5 6 5 5 5 4 5 3 3 3 3 3 2 2 2 4 4 4 3 3 2 3 3 3
11 10 10 7 8 7 7 7 8 6 5 5 4 5 5 4 3 4 5 3 2 3 3 4 4 4 4 5 4 3 4 3
12 9 7 8 7 7 7 6 6 5 5 4 5 5 5 5 4 4 4 3 3 3 3 4 4 5 4 5 3 3 5 5
10 11 9 8 8 7 7 6 6 5 5 4 4 5 5 5 4 4 4 3 2 3 4 5 5 4 4 5 4 5 6 5
Wind_Direction
189 204 205 206 205 198 195 174 158 161 159 153 159 160 171 191 207 206 220 218 238 240 246 265 276 276 289 305 306 278 219 191
212 203 211 200 189 201 178 162 163 171 149 162 160 169 186 218 225 210 200 214 225 234 227 230 235 247 255 260 269 270 230 193
218 211 208 193 210 189 179 167 165 167 161 168 162 186 203 219 220 205 194 212 220 220 225 222 230 226 228 233 242 243 219 210
222 213 213 203 192 187 154 165 158 152 163 173 186 185 220 213 219 218 214 213 218 217 224 222 224 207 220 226 233 212 218 190
217 220 209 206 174 136 163 159 155 155 175 183 185 211 203 223 229 222 222 213 219 221 220 214 216 204 217 213 214 182 188 195
228 230 220 151 135 153 149 153 157 160 174 185 200 218 214 230 230 224 225 221 212 211 214 226 197 204 202 209 184 194 216 203
232 215 183 155 145 143 150 151 159 171 179 184 209 228 230 236 229 227 223 219 200 201 203 220 200 197 204 193 190 182 194 204
239 186 147 140 140 147 151 153 157 167 156 180 237 241 244 238 232 230 227 212 203 193 198 201 190 194 190 167 177 194 187 192
189 152 139 136 141 147 152 150 169 146 142 169 216 212 241 276 259 233 219 222 197 189 199 189 182 198 194 182 172 180 190 155
157 147 157 163 156 153 146 155 163 171 160 192 145 159 237 256 272 271 222 216 200 179 183 189 175 178 191 180 169 140 153 169
185 164 159 148 154 152 153 162 167 177 177 118 79 56 356 335 309 11 275 226 195 190 177 167 175 173 184 177 176 161 138 173
133 146 149 155 145 144 141 152 165 180 166 129 146 154 203 241 261 308 302 71 114 144 170 166 175 167 178 184 172 164 143 148
164 154 145 139 138 149 147 153 168 165 160 154 144 151 216 229 73 44 7 40 119 139 144 150 157 179 186 176 161 189 173 159
116 119 137 130 129 133 145 158 170 159 160 163 147 174 192 155 34 3 2 32 99 112 139 159 157 164 159 170 179 180 185 185
138 150 148 138 148 152 153 163 157 169 176 156 157 186 173 140 173 219 136 144 102 113 128 136 117 140 152 145 163 161 178 176
152 153 149 151 153 155 157 159 152 173 176 153 161 170 139 143 180 165 132 132 129 137 123 118 102 104 129 140 141 160 157 136
152 154 148 149 153 162 160 161 166 178 184 157 166 173 146 157 159 134 111 112 130 112 104 91 81 89 101 132 134 163 131 136
152 152 148 150 155 152 157 168 168 184 179 159 184 173 150 158 162 133 132 135 118 109 80 89 91 92 94 102 113 115 120 113
159 148 155 148 143 151 168 167 162 173 159 160 190 163 152 163 154 143 146 137 146 148 118 108 112 106 110 110 108 113 105 117
154 153 145 147 156 158 180 172 176 186 161 166 188 159 143 166 157 156 148 141 157 171 133 118 118 119 120 127 130 93 99 89